TUI96H EDDL-HELX

Flight info

Callsign TUI96H
Flight time N/A
Altitude 37000
Route DODEN1T DODEN Y853 BOMBI DCT DETEV DCT DINKU DCT BESNI DCT LATLO DCT OBEDI DCT PODET DCT NOVLO DCT IRDIV DCT UZVEZ DCT PODOB DCT MEDUX UM867 KOGAT DCT ERANA UL737 TSL UN130 MES UL609 RDS UL995 VANZA DCT RASDA A16 CVO A727 LXR
Aircraft B738/M-SDE2E3FGHIRWXY/LB1

Departure

Time N/A
Airport Düsseldorf Airport (EDDL)

Arrival

Time 2026-04-16 16:40
Airport Luxor International Airport (HELX)
Time Latitude Longitude Altitude Speed Heading
2026-04-16 15:10 35.14297 29.55325 36081 ft 442 kts 141°
2026-04-16 15:10 35.12049 29.57913 36148 ft 446 kts 141°
2026-04-16 15:10 35.09793 29.60509 36353 ft 446 kts 141°
2026-04-16 15:11 35.07541 29.63102 36629 ft 444 kts 142°
2026-04-16 15:11 35.05296 29.65683 36802 ft 444 kts 142°
2026-04-16 15:11 35.03037 29.68276 36799 ft 448 kts 142°
2026-04-16 15:12 34.98495 29.73486 36795 ft 447 kts 142°
2026-04-16 15:12 34.94001 29.78701 36797 ft 445 kts 141°
2026-04-16 15:13 34.89549 29.83935 36791 ft 444 kts 142°
2026-04-16 15:13 34.85108 29.89139 36800 ft 443 kts 142°
2026-04-16 15:14 34.80660 29.94334 36806 ft 443 kts 142°
2026-04-16 15:14 34.76140 29.99416 36796 ft 440 kts 149°
2026-04-16 15:15 34.70907 30.03017 36812 ft 431 kts 160°
2026-04-16 15:15 34.66386 30.05591 36797 ft 432 kts 161°
2026-04-16 15:16 34.60048 30.09213 36796 ft 434 kts 161°
2026-04-16 15:16 34.55469 30.11863 36781 ft 436 kts 161°
2026-04-16 15:17 34.49992 30.15048 36794 ft 437 kts 161°
2026-04-16 15:17 34.44498 30.18243 36793 ft 438 kts 161°
2026-04-16 15:18 34.38992 30.21439 36793 ft 439 kts 161°
2026-04-16 15:18 34.33481 30.24634 36785 ft 439 kts 161°
2026-04-16 15:19 34.28003 30.27804 36782 ft 439 kts 161°
2026-04-16 15:19 34.22493 30.30988 36783 ft 438 kts 161°
2026-04-16 15:20 34.16994 30.34161 36773 ft 437 kts 161°
2026-04-16 15:20 34.11510 30.37321 36784 ft 436 kts 161°
2026-04-16 15:21 34.06039 30.40468 36766 ft 435 kts 161°
2026-04-16 15:21 34.00574 30.43608 36780 ft 435 kts 161°
2026-04-16 15:22 33.95109 30.46742 36777 ft 435 kts 161°
2026-04-16 15:22 33.89633 30.49877 36763 ft 436 kts 162°
2026-04-16 15:23 33.84152 30.53013 36775 ft 437 kts 162°
2026-04-16 15:23 33.78652 30.56153 36775 ft 438 kts 162°
2026-04-16 15:24 33.73128 30.59303 36775 ft 440 kts 162°
2026-04-16 15:24 33.67588 30.62459 36773 ft 441 kts 162°
2026-04-16 15:25 33.62035 30.65617 36753 ft 442 kts 162°
2026-04-16 15:25 33.56466 30.68780 36766 ft 443 kts 162°
2026-04-16 15:26 33.50893 30.71941 36760 ft 443 kts 162°
2026-04-16 15:26 33.45312 30.75102 36759 ft 443 kts 162°
2026-04-16 15:27 33.39770 30.78237 36756 ft 443 kts 162°
2026-04-16 15:27 33.34198 30.81384 36743 ft 442 kts 162°
2026-04-16 15:28 33.28634 30.84522 36757 ft 442 kts 162°
2026-04-16 15:28 33.23076 30.87652 36755 ft 442 kts 162°
2026-04-16 15:29 33.17521 30.90777 36750 ft 441 kts 162°
2026-04-16 15:29 33.11961 30.93874 36748 ft 438 kts 166°
2026-04-16 15:30 33.06195 30.95547 36751 ft 419 kts 182°
2026-04-16 15:30 33.00391 30.96139 36743 ft 419 kts 183°
2026-04-16 15:31 32.94579 30.96739 36747 ft 420 kts 183°
2026-04-16 15:31 32.88756 30.97372 36743 ft 421 kts 182°
2026-04-16 15:32 32.82926 30.98019 36735 ft 421 kts 183°
2026-04-16 15:32 32.77080 30.98671 36742 ft 422 kts 183°
2026-04-16 15:33 32.71224 30.99322 36745 ft 423 kts 183°
2026-04-16 15:33 32.65363 30.99973 36746 ft 423 kts 183°
2026-04-16 15:34 32.59496 31.00624 36726 ft 424 kts 183°
2026-04-16 15:34 32.53629 31.01273 36736 ft 423 kts 183°
2026-04-16 15:35 32.47802 31.01918 36736 ft 423 kts 183°
2026-04-16 15:35 32.41940 31.02565 36734 ft 423 kts 183°
2026-04-16 15:36 32.36081 31.03211 36716 ft 422 kts 184°
2026-04-16 15:36 32.30234 31.03856 36725 ft 422 kts 184°
2026-04-16 15:37 32.24390 31.04498 36734 ft 421 kts 184°
2026-04-16 15:37 32.18556 31.05139 36729 ft 421 kts 184°
2026-04-16 15:38 32.12723 31.05779 36705 ft 421 kts 184°
2026-04-16 15:38 32.06898 31.06417 36731 ft 420 kts 184°
2026-04-16 15:39 32.01071 31.07054 36726 ft 420 kts 184°
2026-04-16 15:39 31.95249 31.07691 36726 ft 420 kts 184°
2026-04-16 15:40 31.89425 31.08327 36726 ft 421 kts 184°
2026-04-16 15:40 31.83595 31.08963 36709 ft 421 kts 184°
2026-04-16 15:41 31.77761 31.09599 36715 ft 421 kts 184°
2026-04-16 15:41 31.71922 31.10234 36712 ft 421 kts 184°
2026-04-16 15:42 31.66076 31.10870 36708 ft 422 kts 184°
2026-04-16 15:42 31.60237 31.11504 36703 ft 422 kts 184°
2026-04-16 15:43 31.54392 31.12138 36704 ft 421 kts 184°
2026-04-16 15:43 31.48545 31.13017 36705 ft 426 kts 180°
2026-04-16 15:44 31.42684 31.14148 36698 ft 427 kts 180°
2026-04-16 15:44 31.36829 31.15259 36692 ft 426 kts 181°
2026-04-16 15:45 31.31015 31.16331 36693 ft 426 kts 181°
2026-04-16 15:45 31.25165 31.17404 36689 ft 426 kts 181°
2026-04-16 15:46 31.19312 31.18489 36691 ft 426 kts 180°
2026-04-16 15:46 31.13447 31.19588 36657 ft 426 kts 180°
2026-04-16 15:47 31.07592 31.20684 36672 ft 427 kts 180°
2026-04-16 15:47 31.01724 31.21779 36679 ft 427 kts 180°
2026-04-16 15:48 30.95842 31.22875 36680 ft 428 kts 180°
2026-04-16 15:48 30.89950 31.23971 36640 ft 429 kts 180°
2026-04-16 15:49 30.84045 31.25069 36657 ft 430 kts 180°
2026-04-16 15:49 30.78129 31.26167 36664 ft 431 kts 180°
2026-04-16 15:50 30.72191 31.27268 36667 ft 433 kts 180°
2026-04-16 15:50 30.66220 31.28373 36665 ft 435 kts 180°
2026-04-16 15:51 30.60228 31.29482 36653 ft 436 kts 180°
2026-04-16 15:51 30.54227 31.30592 36662 ft 437 kts 180°
2026-04-16 15:52 30.48214 31.31702 36661 ft 438 kts 180°
2026-04-16 15:52 30.42193 31.32806 36657 ft 438 kts 180°
2026-04-16 15:53 30.36182 31.33900 36652 ft 437 kts 180°
2026-04-16 15:53 30.30172 31.34993 36657 ft 437 kts 180°
2026-04-16 15:54 30.24212 31.36076 36659 ft 436 kts 180°
2026-04-16 15:54 30.18221 31.37164 36668 ft 436 kts 180°
2026-04-16 15:55 30.12231 31.38250 36650 ft 436 kts 181°
2026-04-16 15:55 30.06254 31.39624 36670 ft 443 kts 174°
2026-04-16 15:56 30.00320 31.41649 36660 ft 446 kts 173°
2026-04-16 15:56 29.94380 31.43706 36669 ft 445 kts 173°
2026-04-16 15:57 29.88433 31.45702 36668 ft 445 kts 174°
2026-04-16 15:57 29.82477 31.47674 36656 ft 445 kts 174°
2026-04-16 15:58 29.76521 31.49643 36672 ft 446 kts 174°
2026-04-16 15:58 29.70550 31.51617 36675 ft 447 kts 174°
2026-04-16 15:59 29.61566 31.54572 36685 ft 448 kts 174°
2026-04-16 15:59 29.55557 31.56543 36677 ft 450 kts 174°
2026-04-16 16:00 29.49524 31.58522 36685 ft 451 kts 174°
2026-04-16 16:00 29.43474 31.60503 36694 ft 453 kts 174°
2026-04-16 16:01 29.37396 31.62492 36686 ft 455 kts 174°
2026-04-16 16:01 29.31299 31.64486 36691 ft 456 kts 174°
2026-04-16 16:02 29.25197 31.66479 36694 ft 456 kts 174°
2026-04-16 16:02 29.19133 31.68457 36696 ft 456 kts 174°
2026-04-16 16:03 29.13040 31.70441 36690 ft 455 kts 174°
2026-04-16 16:03 29.06953 31.72422 36693 ft 454 kts 174°
2026-04-16 16:04 29.00877 31.74396 36685 ft 453 kts 174°
2026-04-16 16:04 28.94813 31.76351 36687 ft 452 kts 174°
2026-04-16 16:05 28.88755 31.78274 36687 ft 452 kts 174°
2026-04-16 16:05 28.83720 31.79867 36689 ft 452 kts 174°
2026-04-16 16:06 28.77664 31.81786 36663 ft 452 kts 174°
2026-04-16 16:06 28.71604 31.83705 36679 ft 452 kts 174°
2026-04-16 16:07 28.65530 31.85627 36701 ft 454 kts 174°
2026-04-16 16:07 28.59419 31.87558 36701 ft 457 kts 174°
2026-04-16 16:08 28.53282 31.89496 36702 ft 459 kts 174°
2026-04-16 16:08 28.50195 31.90470 36441 ft 462 kts 174°
2026-04-16 16:08 28.47103 31.91446 36187 ft 459 kts 174°
2026-04-16 16:09 28.44034 31.92416 35937 ft 458 kts 174°
2026-04-16 16:09 28.40965 31.93384 35695 ft 457 kts 174°
2026-04-16 16:09 28.37911 31.94346 35445 ft 456 kts 174°
2026-04-16 16:09 28.34854 31.95308 35191 ft 455 kts 174°
2026-04-16 16:10 28.31816 31.96264 34964 ft 453 kts 173°
2026-04-16 16:10 28.28782 31.97217 34775 ft 452 kts 173°
2026-04-16 16:10 28.22702 31.99121 34696 ft 454 kts 173°
2026-04-16 16:11 28.16596 32.01035 34707 ft 456 kts 173°
2026-04-16 16:11 28.10469 32.02956 34707 ft 457 kts 173°
2026-04-16 16:12 28.04344 32.04873 34708 ft 457 kts 173°
2026-04-16 16:12 27.98221 32.06809 34708 ft 457 kts 173°
2026-04-16 16:13 27.92105 32.08770 34712 ft 456 kts 173°
2026-04-16 16:13 27.85995 32.10726 34570 ft 456 kts 173°
2026-04-16 16:14 27.82960 32.11697 34246 ft 450 kts 173°
2026-04-16 16:14 27.79965 32.12657 33865 ft 446 kts 173°
2026-04-16 16:14 27.76989 32.13607 33454 ft 442 kts 173°
2026-04-16 16:14 27.74042 32.14546 33017 ft 439 kts 173°
2026-04-16 16:15 27.71145 32.15467 32616 ft 436 kts 173°
2026-04-16 16:15 27.68242 32.16390 32205 ft 432 kts 173°
2026-04-16 16:15 27.65359 32.17306 31822 ft 429 kts 173°
2026-04-16 16:15 27.62511 32.18212 31558 ft 422 kts 173°
2026-04-16 16:16 27.59709 32.19104 31310 ft 415 kts 173°
2026-04-16 16:16 27.56943 32.19982 31062 ft 413 kts 173°
2026-04-16 16:16 27.54161 32.20859 30769 ft 418 kts 173°
2026-04-16 16:16 27.51358 32.21742 30394 ft 417 kts 173°
2026-04-16 16:17 27.48574 32.22624 30029 ft 414 kts 172°
2026-04-16 16:17 27.45809 32.23501 29631 ft 412 kts 172°
2026-04-16 16:17 27.43065 32.24371 29200 ft 409 kts 172°
2026-04-16 16:17 27.40339 32.25235 28753 ft 405 kts 172°
2026-04-16 16:18 27.37639 32.26089 28389 ft 401 kts 172°
2026-04-16 16:18 27.34965 32.26934 27983 ft 398 kts 172°
2026-04-16 16:18 27.32306 32.27774 27598 ft 395 kts 172°
2026-04-16 16:18 27.29667 32.28606 27217 ft 392 kts 172°
2026-04-16 16:19 27.27050 32.29434 26835 ft 389 kts 172°
2026-04-16 16:19 27.24453 32.30256 26458 ft 387 kts 172°
2026-04-16 16:19 27.21871 32.31072 26091 ft 384 kts 172°
2026-04-16 16:19 27.19304 32.31884 25713 ft 382 kts 171°
2026-04-16 16:20 27.16754 32.32689 25351 ft 380 kts 171°
2026-04-16 16:20 27.14216 32.33490 24976 ft 378 kts 171°
2026-04-16 16:20 27.11694 32.34285 24596 ft 376 kts 171°
2026-04-16 16:20 27.09181 32.35077 24212 ft 374 kts 171°
2026-04-16 16:21 27.06680 32.35865 23861 ft 373 kts 171°
2026-04-16 16:21 27.04184 32.36651 23482 ft 372 kts 171°
2026-04-16 16:21 27.01700 32.37433 23084 ft 370 kts 171°
2026-04-16 16:21 26.99226 32.38212 22678 ft 368 kts 170°
2026-04-16 16:22 26.96799 32.38975 22300 ft 366 kts 170°
2026-04-16 16:22 26.94326 32.39754 21923 ft 363 kts 170°
2026-04-16 16:22 26.91932 32.40507 21557 ft 361 kts 170°
2026-04-16 16:22 26.89526 32.41263 21197 ft 358 kts 170°
2026-04-16 16:23 26.87134 32.42014 20847 ft 356 kts 170°
2026-04-16 16:23 26.84760 32.42759 20486 ft 354 kts 169°
2026-04-16 16:23 26.82396 32.43501 20139 ft 351 kts 169°
2026-04-16 16:23 26.80048 32.44237 19791 ft 350 kts 169°
2026-04-16 16:24 26.77713 32.44968 19447 ft 348 kts 169°
2026-04-16 16:24 26.75386 32.45697 19102 ft 346 kts 169°
2026-04-16 16:24 26.73072 32.46422 18760 ft 345 kts 169°
2026-04-16 16:24 26.70766 32.47144 18409 ft 344 kts 169°
2026-04-16 16:25 26.68468 32.47863 18060 ft 343 kts 168°
2026-04-16 16:25 26.66170 32.48581 17665 ft 342 kts 168°
2026-04-16 16:25 26.63888 32.49295 17307 ft 340 kts 168°
2026-04-16 16:25 26.61614 32.50006 16945 ft 338 kts 168°
2026-04-16 16:26 26.59359 32.50711 16593 ft 336 kts 168°
2026-04-16 16:26 26.57115 32.51412 16252 ft 334 kts 168°
2026-04-16 16:26 26.54888 32.52107 15916 ft 331 kts 167°
2026-04-16 16:26 26.52676 32.52797 15585 ft 329 kts 167°
2026-04-16 16:27 26.50476 32.53484 15253 ft 328 kts 167°
2026-04-16 16:27 26.48282 32.54168 14924 ft 326 kts 167°
2026-04-16 16:27 26.46100 32.54848 14587 ft 325 kts 167°
2026-04-16 16:27 26.43922 32.55526 14257 ft 324 kts 167°
2026-04-16 16:28 26.41783 32.56192 13928 ft 323 kts 167°
2026-04-16 16:28 26.39622 32.56865 13586 ft 322 kts 166°
2026-04-16 16:28 26.37460 32.57537 13225 ft 322 kts 166°
2026-04-16 16:28 26.35319 32.58239 12887 ft 318 kts 163°
2026-04-16 16:29 26.33252 32.59064 12538 ft 312 kts 161°
2026-04-16 16:29 26.31249 32.59916 12285 ft 303 kts 161°
2026-04-16 16:29 26.29307 32.60750 12003 ft 296 kts 161°
2026-04-16 16:29 26.27397 32.61563 11614 ft 293 kts 161°
2026-04-16 16:30 26.25489 32.62367 11184 ft 293 kts 161°
2026-04-16 16:30 26.23588 32.63163 10796 ft 291 kts 161°
2026-04-16 16:30 26.21697 32.63950 10409 ft 289 kts 161°
2026-04-16 16:30 26.19815 32.64732 10021 ft 288 kts 161°
2026-04-16 16:31 26.17942 32.65508 9652 ft 286 kts 161°
2026-04-16 16:31 26.16077 32.66279 9251 ft 285 kts 161°
2026-04-16 16:31 26.14226 32.67044 8842 ft 283 kts 161°
2026-04-16 16:31 26.12388 32.67803 8472 ft 281 kts 161°
2026-04-16 16:32 26.10566 32.68555 8088 ft 278 kts 161°
2026-04-16 16:32 26.08754 32.69302 7694 ft 277 kts 161°
2026-04-16 16:32 26.06954 32.70044 7332 ft 274 kts 161°
2026-04-16 16:32 26.05173 32.70778 6939 ft 273 kts 161°
2026-04-16 16:33 26.03397 32.71508 6532 ft 271 kts 161°
2026-04-16 16:33 26.01633 32.72234 6109 ft 269 kts 161°
2026-04-16 16:33 25.99884 32.72955 5732 ft 268 kts 160°
2026-04-16 16:33 25.98137 32.73675 5328 ft 268 kts 160°
2026-04-16 16:34 25.96395 32.74392 4965 ft 266 kts 161°
2026-04-16 16:34 25.94671 32.75101 4695 ft 261 kts 161°
2026-04-16 16:34 25.92997 32.75790 4478 ft 254 kts 160°
2026-04-16 16:34 25.91351 32.76466 4230 ft 249 kts 160°
2026-04-16 16:35 25.89745 32.77126 3979 ft 244 kts 160°
2026-04-16 16:35 25.88167 32.77774 3738 ft 240 kts 160°
2026-04-16 16:35 25.86631 32.78405 3497 ft 237 kts 160°
2026-04-16 16:35 25.85084 32.78912 3275 ft 227 kts 178°
2026-04-16 16:36 25.83628 32.78479 3060 ft 214 kts 212°
2026-04-16 16:36 25.82360 32.77690 2895 ft 205 kts 204°
2026-04-16 16:36 25.81064 32.77115 2764 ft 194 kts 202°
2026-04-16 16:36 25.79838 32.76564 2566 ft 185 kts 203°
2026-04-16 16:37 25.78698 32.76038 2371 ft 170 kts 204°
2026-04-16 16:37 25.77655 32.75553 2153 ft 159 kts 204°
2026-04-16 16:37 25.76638 32.75079 1958 ft 159 kts 204°
2026-04-16 16:37 25.75616 32.74604 1781 ft 159 kts 204°
2026-04-16 16:38 25.74591 32.74120 1532 ft 162 kts 204°
2026-04-16 16:38 25.73556 32.73645 1334 ft 160 kts 203°
2026-04-16 16:38 25.72534 32.73170 1162 ft 159 kts 205°
2026-04-16 16:38 25.71515 32.72693 979 ft 159 kts 204°
2026-04-16 16:39 25.70484 32.72212 746 ft 161 kts 203°
2026-04-16 16:39 25.69458 32.71736 591 ft 158 kts 202°
2026-04-16 16:39 25.68444 32.71264 392 ft 158 kts 203°
2026-04-16 16:39 25.67473 32.70813 332 ft 133 kts 202°
2026-04-16 16:40 25.66824 32.70511 329 ft 70 kts 202°
2026-04-16 16:40 25.66578 32.70396 328 ft 7 kts 203°
2026-04-16 16:40 25.66549 32.70382 327 ft 9 kts 203°
2026-04-16 16:40 25.66486 32.70328 330 ft 12 kts 247°
2026-04-16 16:41 25.66502 32.70238 330 ft 10 kts 291°
2026-04-16 16:41 25.66504 32.70232 329 ft 0 kts 291°
2026-04-16 16:42 25.66506 32.70226 330 ft 4 kts 291°
2026-04-16 16:42 25.66526 32.70175 330 ft 9 kts 293°
2026-04-16 16:42 25.66562 32.70082 330 ft 16 kts 293°
2026-04-16 16:42 25.66606 32.69966 330 ft 16 kts 292°
2026-04-16 16:43 25.66660 32.69917 331 ft 10 kts
2026-04-16 16:43 25.66725 32.69940 330 ft 10 kts 22°
2026-04-16 16:43 25.66777 32.69932 331 ft 8 kts 305°
2026-04-16 16:43 25.66791 32.69898 328 ft 2 kts 292°
2026-04-16 16:44 25.66791 32.69896 329 ft 0 kts 292°